Time,TemperatureF,DewpointF,PressureIn,WindDirection,WindDirectionDegrees,WindSpeedMPH,WindSpeedGustMPH,Humidity,HourlyPrecipIn,Conditions,Clouds,dailyrainin,SoftwareType,DateUTC
2014-01-03 00:01:00,3.8,-3.2,30.36,NNW,344,0.0,1.0,72,0.00,,---,0.00,VWS V14.00,2014-01-03 05:01:00,
2014-01-03 00:02:00,3.8,-3.2,30.36,NNW,344,1.0,1.0,72,0.00,,---,0.00,VWS V14.00,2014-01-03 05:02:00,
2014-01-03 00:03:00,3.8,-3.2,30.36,NNW,344,0.0,1.0,72,0.00,,---,0.00,VWS V14.00,2014-01-03 05:03:00,
2014-01-03 00:08:00,3.6,-3.4,30.36,NNW,344,0.0,2.0,72,0.00,,---,0.00,VWS V14.00,2014-01-03 05:08:00,
2014-01-03 00:12:00,3.5,-3.2,30.37,NNW,344,1.0,2.0,73,0.00,,---,0.00,VWS V14.00,2014-01-03 05:12:00,
2014-01-03 00:17:00,3.3,-3.4,30.37,NNW,344,0.0,2.0,73,0.00,,---,0.00,VWS V14.00,2014-01-03 05:17:00,
2014-01-03 00:22:00,3.2,-3.5,30.37,NNW,344,0.0,2.0,73,0.00,,---,0.00,VWS V14.00,2014-01-03 05:22:00,
2014-01-03 00:27:00,3.1,-3.6,30.37,NNW,344,1.0,2.0,73,0.00,,---,0.00,VWS V14.00,2014-01-03 05:27:00,
2014-01-03 00:32:00,3.1,-3.6,30.37,NNW,344,1.0,2.0,73,0.00,,---,0.00,VWS V14.00,2014-01-03 05:32:00,
2014-01-03 00:38:00,3.0,-3.7,30.38,NNW,344,0.0,2.0,73,0.00,,---,0.00,VWS V14.00,2014-01-03 05:38:00,
2014-01-03 00:43:00,2.9,-3.8,30.37,NNW,344,0.0,2.0,73,0.00,,---,0.00,VWS V14.00,2014-01-03 05:43:00,
2014-01-03 00:48:00,2.8,-3.9,30.37,NNW,344,0.0,2.0,73,0.00,,---,0.00,VWS V14.00,2014-01-03 05:48:00,
2014-01-03 00:53:00,2.5,-3.9,30.37,NNW,344,0.0,2.0,74,0.00,,---,0.00,VWS V14.00,2014-01-03 05:53:00,
2014-01-03 00:58:00,2.4,-4.0,30.37,NNW,344,0.0,2.0,74,0.00,,---,0.00,VWS V14.00,2014-01-03 05:58:00,
2014-01-03 01:03:00,2.4,-3.7,30.37,NNW,343,0.0,0.0,75,0.00,,---,0.00,VWS V14.00,2014-01-03 06:03:00,
2014-01-03 01:08:00,2.3,-3.8,30.38,NNW,344,0.0,0.0,75,0.00,,---,0.00,VWS V14.00,2014-01-03 06:08:00,
2014-01-03 01:13:00,2.2,-3.9,30.38,NNW,344,0.0,0.0,75,0.00,,---,0.00,VWS V14.00,2014-01-03 06:13:00,
2014-01-03 01:18:00,2.0,-4.1,30.38,NNW,343,0.0,0.0,75,0.00,,---,0.00,VWS V14.00,2014-01-03 06:18:00,
2014-01-03 01:23:00,1.9,-3.9,30.37,NNW,344,0.0,0.0,76,0.00,,---,0.00,VWS V14.00,2014-01-03 06:23:00,
2014-01-03 01:28:00,1.9,-3.9,30.37,NNW,344,0.0,1.0,76,0.00,,---,0.00,VWS V14.00,2014-01-03 06:28:00,
2014-01-03 01:33:00,2.0,-3.8,30.37,NNW,344,0.0,0.0,76,0.00,,---,0.00,VWS V14.00,2014-01-03 06:33:00,
2014-01-03 01:38:00,1.9,-3.9,30.38,NNW,344,0.0,0.0,76,0.00,,---,0.00,VWS V14.00,2014-01-03 06:38:00,
2014-01-03 01:43:00,1.7,-4.1,30.38,NNW,344,0.0,2.0,76,0.00,,---,0.00,VWS V14.00,2014-01-03 06:43:00,
2014-01-03 01:48:00,1.6,-4.2,30.39,NNW,344,0.0,2.0,76,0.00,,---,0.00,VWS V14.00,2014-01-03 06:48:00,
2014-01-03 01:53:00,1.5,-4.3,30.39,NNW,344,0.0,2.0,76,0.00,,---,0.00,VWS V14.00,2014-01-03 06:53:00,
2014-01-03 01:58:00,1.4,-4.4,30.39,NNW,344,0.0,2.0,76,0.00,,---,0.00,VWS V14.00,2014-01-03 06:58:00,
2014-01-03 02:03:00,1.3,-4.2,30.39,NNW,344,0.0,0.0,77,0.00,,---,0.00,VWS V14.00,2014-01-03 07:03:00,
2014-01-03 02:08:00,1.2,-4.3,30.39,NNW,344,0.0,1.0,77,0.00,,---,0.00,VWS V14.00,2014-01-03 07:08:00,
2014-01-03 02:13:00,1.1,-4.4,30.40,NNW,344,0.0,1.0,77,0.00,,---,0.00,VWS V14.00,2014-01-03 07:13:00,
2014-01-03 02:19:00,1.0,-4.5,30.40,NNW,344,0.0,1.0,77,0.00,,---,0.00,VWS V14.00,2014-01-03 07:19:00,
2014-01-03 02:24:00,0.7,-4.8,30.40,NNW,344,0.0,1.0,77,0.00,,---,0.00,VWS V14.00,2014-01-03 07:24:00,
2014-01-03 02:29:00,0.3,-5.2,30.40,NNW,344,0.0,1.0,77,0.00,,---,0.00,VWS V14.00,2014-01-03 07:29:00,
2014-01-03 02:34:00,0.1,-5.5,30.41,NNW,344,0.0,0.0,77,0.00,,---,0.00,VWS V14.00,2014-01-03 07:34:00,
2014-01-03 02:39:00,-0.3,-5.8,30.41,NNW,344,0.0,0.0,77,0.00,,---,0.00,VWS V14.00,2014-01-03 07:39:00,
2014-01-03 02:44:00,-0.7,-6.2,30.42,NNW,344,0.0,0.0,77,0.00,,---,0.00,VWS V14.00,2014-01-03 07:44:00,
2014-01-03 02:49:00,-0.9,-6.1,30.42,NNW,344,0.0,0.0,78,0.00,,---,0.00,VWS V14.00,2014-01-03 07:49:00,
2014-01-03 02:54:00,-1.2,-6.1,30.42,NNW,344,0.0,0.0,79,0.00,,---,0.00,VWS V14.00,2014-01-03 07:54:00,
2014-01-03 02:59:00,-1.4,-6.1,30.42,NNW,344,0.0,0.0,80,0.00,,---,0.00,VWS V14.00,2014-01-03 07:59:00,
2014-01-03 03:04:00,-1.6,-6.2,30.42,NNW,344,0.0,0.0,80,0.00,,---,0.00,VWS V14.00,2014-01-03 08:04:00,
2014-01-03 03:09:00,-1.7,-6.3,30.43,NNW,344,0.0,0.0,80,0.00,,---,0.00,VWS V14.00,2014-01-03 08:09:00,
2014-01-03 03:14:00,-1.8,-6.4,30.43,NNW,344,0.0,0.0,80,0.00,,---,0.00,VWS V14.00,2014-01-03 08:14:00,
2014-01-03 03:19:00,-2.0,-6.4,30.43,NNW,344,0.0,1.0,81,0.00,,---,0.00,VWS V14.00,2014-01-03 08:19:00,
2014-01-03 03:24:00,-2.1,-6.5,30.43,NNW,344,0.0,1.0,81,0.00,,---,0.00,VWS V14.00,2014-01-03 08:24:00,
2014-01-03 03:29:00,-2.2,-6.6,30.43,NNW,344,0.0,1.0,81,0.00,,---,0.00,VWS V14.00,2014-01-03 08:29:00,
2014-01-03 03:34:00,-2.3,-6.7,30.43,NNW,344,0.0,0.0,81,0.00,,---,0.00,VWS V14.00,2014-01-03 08:34:00,
2014-01-03 03:39:00,-2.5,-6.9,30.44,NNW,344,0.0,0.0,81,0.00,,---,0.00,VWS V14.00,2014-01-03 08:39:00,
2014-01-03 03:44:00,-2.7,-7.1,30.44,NNW,344,0.0,0.0,81,0.00,,---,0.00,VWS V14.00,2014-01-03 08:44:00,
2014-01-03 03:49:00,-2.9,-7.3,30.44,NNW,344,0.0,0.0,81,0.00,,---,0.00,VWS V14.00,2014-01-03 08:49:00,
2014-01-03 03:54:00,-3.0,-7.1,30.44,NNW,344,0.0,1.0,82,0.00,,---,0.00,VWS V14.00,2014-01-03 08:54:00,
2014-01-03 03:59:00,-2.6,-6.5,30.44,NNW,344,0.0,1.0,83,0.00,,---,0.00,VWS V14.00,2014-01-03 08:59:00,
2014-01-03 04:04:00,-2.5,-6.4,30.44,NNW,344,0.0,0.0,83,0.00,,---,0.00,VWS V14.00,2014-01-03 09:04:00,
2014-01-03 04:10:00,-2.6,-6.5,30.44,NNW,344,0.0,0.0,83,0.00,,---,0.00,VWS V14.00,2014-01-03 09:10:00,
2014-01-03 04:15:00,-2.7,-6.6,30.44,NNW,344,0.0,1.0,83,0.00,,---,0.00,VWS V14.00,2014-01-03 09:15:00,
2014-01-03 04:20:00,-3.0,-7.1,30.44,NNW,344,0.0,1.0,82,0.00,,---,0.00,VWS V14.00,2014-01-03 09:20:00,
2014-01-03 04:25:00,-3.1,-7.0,30.44,NNW,344,0.0,1.0,83,0.00,,---,0.00,VWS V14.00,2014-01-03 09:25:00,
2014-01-03 04:30:00,-3.1,-7.0,30.44,NNW,344,0.0,0.0,83,0.00,,---,0.00,VWS V14.00,2014-01-03 09:30:00,
2014-01-03 04:35:00,-3.2,-7.1,30.44,NNW,344,0.0,0.0,83,0.00,,---,0.00,VWS V14.00,2014-01-03 09:35:00,
2014-01-03 04:40:00,-3.2,-6.8,30.44,NNW,344,0.0,0.0,84,0.00,,---,0.00,VWS V14.00,2014-01-03 09:40:00,
2014-01-03 04:45:00,-3.2,-6.8,30.44,NNW,344,0.0,0.0,84,0.00,,---,0.00,VWS V14.00,2014-01-03 09:45:00,
2014-01-03 04:50:00,-3.4,-7.0,30.44,NNW,344,0.0,0.0,84,0.00,,---,0.00,VWS V14.00,2014-01-03 09:50:00,
2014-01-03 04:55:00,-3.5,-7.1,30.44,NNW,343,0.0,0.0,84,0.00,,---,0.00,VWS V14.00,2014-01-03 09:55:00,
2014-01-03 05:00:00,-3.6,-7.2,30.45,NNW,344,0.0,0.0,84,0.00,,---,0.00,VWS V14.00,2014-01-03 10:00:00,
2014-01-03 05:05:00,-3.5,-7.1,30.45,NNW,344,1.0,2.0,84,0.00,,---,0.00,VWS V14.00,2014-01-03 10:05:00,
2014-01-03 05:10:00,-3.5,-6.9,30.45,NNW,344,0.0,2.0,85,0.00,,---,0.00,VWS V14.00,2014-01-03 10:10:00,
2014-01-03 05:15:00,-3.4,-6.8,30.45,NNW,344,0.0,2.0,85,0.00,,---,0.00,VWS V14.00,2014-01-03 10:15:00,
2014-01-03 05:20:00,-3.4,-6.8,30.45,NNW,343,0.0,2.0,85,0.00,,---,0.00,VWS V14.00,2014-01-03 10:20:00,
2014-01-03 05:25:00,-3.5,-7.1,30.45,NNW,343,0.0,2.0,84,0.00,,---,0.00,VWS V14.00,2014-01-03 10:25:00,
2014-01-03 05:30:00,-3.6,-7.2,30.45,NNW,343,0.0,0.0,84,0.00,,---,0.00,VWS V14.00,2014-01-03 10:30:00,
2014-01-03 05:35:00,-3.9,-7.5,30.45,NNW,344,0.0,0.0,84,0.00,,---,0.00,VWS V14.00,2014-01-03 10:35:00,
2014-01-03 05:40:00,-4.1,-7.7,30.46,NNW,344,0.0,0.0,84,0.00,,---,0.00,VWS V14.00,2014-01-03 10:40:00,
2014-01-03 05:45:00,-4.3,-7.9,30.46,NNW,344,0.0,0.0,84,0.00,,---,0.00,VWS V14.00,2014-01-03 10:45:00,
2014-01-03 05:50:00,-4.5,-8.1,30.46,NNW,344,0.0,0.0,84,0.00,,---,0.00,VWS V14.00,2014-01-03 10:50:00,
2014-01-03 05:56:00,-4.7,-8.3,30.46,NNW,343,0.0,0.0,84,0.00,,---,0.00,VWS V14.00,2014-01-03 10:56:00,
2014-01-03 06:01:00,-4.8,-8.4,30.46,NNW,344,0.0,0.0,84,0.00,,---,0.00,VWS V14.00,2014-01-03 11:01:00,
2014-01-03 06:06:00,-4.9,-8.5,30.46,NNW,343,0.0,0.0,84,0.00,,---,0.00,VWS V14.00,2014-01-03 11:06:00,
2014-01-03 06:11:00,-5.0,-8.6,30.46,NNW,344,0.0,0.0,84,0.00,,---,0.00,VWS V14.00,2014-01-03 11:11:00,
2014-01-03 06:16:00,-5.0,-8.6,30.46,NNW,343,0.0,0.0,84,0.00,,---,0.00,VWS V14.00,2014-01-03 11:16:00,
2014-01-03 06:21:00,-4.9,-8.2,30.46,NNW,343,0.0,0.0,85,0.00,,---,0.00,VWS V14.00,2014-01-03 11:21:00,
2014-01-03 06:26:00,-5.0,-8.3,30.47,NNW,343,0.0,0.0,85,0.00,,---,0.00,VWS V14.00,2014-01-03 11:26:00,
2014-01-03 06:31:00,-5.0,-8.3,30.47,NNW,343,0.0,0.0,85,0.00,,---,0.00,VWS V14.00,2014-01-03 11:31:00,
2014-01-03 06:36:00,-5.1,-8.4,30.47,NNW,344,0.0,0.0,85,0.00,,---,0.00,VWS V14.00,2014-01-03 11:36:00,
2014-01-03 06:41:00,-5.1,-8.4,30.47,NNW,343,0.0,0.0,85,0.00,,---,0.00,VWS V14.00,2014-01-03 11:41:00,
2014-01-03 06:46:00,-5.1,-8.4,30.47,NNW,343,0.0,1.0,85,0.00,,---,0.00,VWS V14.00,2014-01-03 11:46:00,
2014-01-03 06:51:00,-5.1,-8.4,30.48,NNW,344,0.0,1.0,85,0.00,,---,0.00,VWS V14.00,2014-01-03 11:51:00,
2014-01-03 06:56:00,-5.2,-8.5,30.48,NNW,344,0.0,1.0,85,0.00,,---,0.00,VWS V14.00,2014-01-03 11:56:00,
2014-01-03 07:01:00,-5.3,-8.6,30.48,NNW,344,0.0,0.0,85,0.00,,---,0.00,VWS V14.00,2014-01-03 12:01:00,
2014-01-03 07:06:00,-5.2,-8.5,30.48,NNW,343,0.0,0.0,85,0.00,,---,0.00,VWS V14.00,2014-01-03 12:06:00,
2014-01-03 07:11:00,-5.2,-8.5,30.47,NNW,344,0.0,0.0,85,0.00,,---,0.00,VWS V14.00,2014-01-03 12:11:00,
2014-01-03 07:16:00,-5.2,-8.5,30.47,NNW,344,0.0,0.0,85,0.00,,---,0.00,VWS V14.00,2014-01-03 12:16:00,
2014-01-03 07:21:00,-5.1,-8.4,30.47,NNW,343,0.0,0.0,85,0.00,,---,0.00,VWS V14.00,2014-01-03 12:21:00,
2014-01-03 07:26:00,-5.2,-8.5,30.48,NNW,344,0.0,0.0,85,0.00,,---,0.00,VWS V14.00,2014-01-03 12:26:00,
2014-01-03 07:31:00,-5.3,-8.6,30.48,NNW,344,0.0,0.0,85,0.00,,---,0.00,VWS V14.00,2014-01-03 12:31:00,
2014-01-03 07:36:00,-5.3,-8.6,30.48,NNW,344,0.0,0.0,85,0.00,,---,0.00,VWS V14.00,2014-01-03 12:36:00,
2014-01-03 07:42:00,-5.4,-8.7,30.48,NNW,344,0.0,0.0,85,0.00,,---,0.00,VWS V14.00,2014-01-03 12:42:00,
2014-01-03 07:47:00,-5.5,-9.1,30.48,NNW,344,0.0,0.0,84,0.00,,---,0.00,VWS V14.00,2014-01-03 12:47:00,
2014-01-03 07:52:00,-5.8,-9.4,30.49,NNW,343,0.0,0.0,84,0.00,,---,0.00,VWS V14.00,2014-01-03 12:52:00,
2014-01-03 07:57:00,-6.1,-9.7,30.49,NNW,344,0.0,0.0,84,0.00,,---,0.00,VWS V14.00,2014-01-03 12:57:00,
2014-01-03 08:02:00,-6.3,-9.9,30.49,NNW,343,0.0,0.0,84,0.00,,---,0.00,VWS V14.00,2014-01-03 13:02:00,
2014-01-03 08:07:00,-6.4,-10.0,30.49,NNW,343,0.0,0.0,84,0.00,,---,0.00,VWS V14.00,2014-01-03 13:07:00,
2014-01-03 08:12:00,-6.5,-10.1,30.49,NNW,344,0.0,0.0,84,0.00,,---,0.00,VWS V14.00,2014-01-03 13:12:00,
2014-01-03 08:17:00,-6.6,-10.2,30.50,NNW,344,0.0,0.0,84,0.00,,---,0.00,VWS V14.00,2014-01-03 13:17:00,
2014-01-03 08:22:00,-6.7,-10.3,30.50,NNW,344,0.0,0.0,84,0.00,,---,0.00,VWS V14.00,2014-01-03 13:22:00,
2014-01-03 08:27:00,-6.7,-10.3,30.50,NNW,343,0.0,0.0,84,0.00,,---,0.00,VWS V14.00,2014-01-03 13:27:00,
2014-01-03 08:32:00,-6.7,-10.3,30.50,NNW,344,0.0,0.0,84,0.00,,---,0.00,VWS V14.00,2014-01-03 13:32:00,
2014-01-03 08:37:00,-6.6,-9.9,30.50,NNW,344,0.0,0.0,85,0.00,,---,0.00,VWS V14.00,2014-01-03 13:37:00,
2014-01-03 08:42:00,-6.6,-9.9,30.50,NNW,344,0.0,0.0,85,0.00,,---,0.00,VWS V14.00,2014-01-03 13:42:00,
2014-01-03 08:47:00,-6.6,-9.9,30.50,NNW,344,0.0,0.0,85,0.00,,---,0.00,VWS V14.00,2014-01-03 13:47:00,
2014-01-03 08:52:00,-6.5,-9.8,30.50,NNW,344,1.0,1.0,85,0.00,,---,0.00,VWS V14.00,2014-01-03 13:52:00,
2014-01-03 08:57:00,-6.3,-9.6,30.51,NNW,342,1.0,2.0,85,0.00,,---,0.00,VWS V14.00,2014-01-03 13:57:00,
2014-01-03 09:02:00,-5.9,-9.0,30.51,NNW,342,0.0,0.0,86,0.00,,---,0.00,VWS V14.00,2014-01-03 14:02:00,
2014-01-03 09:07:00,-5.5,-8.6,30.51,NNW,342,0.0,1.0,86,0.00,,---,0.00,VWS V14.00,2014-01-03 14:07:00,
2014-01-03 09:12:00,-5.0,-7.9,30.51,NNW,342,1.0,1.0,87,0.00,,---,0.00,VWS V14.00,2014-01-03 14:12:00,
2014-01-03 09:17:00,-4.4,-7.3,30.51,NNW,341,0.0,2.0,87,0.00,,---,0.00,VWS V14.00,2014-01-03 14:17:00,
2014-01-03 09:22:00,-4.0,-6.9,30.51,NNW,340,0.0,2.0,87,0.00,,---,0.00,VWS V14.00,2014-01-03 14:22:00,
2014-01-03 09:27:00,-3.5,-6.4,30.51,NNW,341,0.0,2.0,87,0.00,,---,0.00,VWS V14.00,2014-01-03 14:27:00,
2014-01-03 09:32:00,-3.1,-6.0,30.51,NNW,340,0.0,1.0,87,0.00,,---,0.00,VWS V14.00,2014-01-03 14:32:00,
2014-01-03 09:37:00,-2.5,-5.4,30.51,NNW,340,0.0,1.0,87,0.00,,---,0.00,VWS V14.00,2014-01-03 14:37:00,
2014-01-03 09:42:00,-2.0,-4.9,30.51,NNW,341,1.0,1.0,87,0.00,,---,0.00,VWS V14.00,2014-01-03 14:42:00,
2014-01-03 09:47:00,-1.5,-4.4,30.51,NNW,340,0.0,1.0,87,0.00,,---,0.00,VWS V14.00,2014-01-03 14:47:00,
2014-01-03 09:53:00,-0.7,-3.6,30.51,NNW,340,0.0,2.0,87,0.00,,---,0.00,VWS V14.00,2014-01-03 14:53:00,
2014-01-03 09:58:00,-0.2,-3.4,30.52,NNW,340,0.0,2.0,86,0.00,,---,0.00,VWS V14.00,2014-01-03 14:58:00,
2014-01-03 10:03:00,0.3,-2.9,30.51,NNW,329,2.0,2.0,86,0.00,,---,0.00,VWS V14.00,2014-01-03 15:03:00,
2014-01-03 10:08:00,1.0,-2.5,30.52,WNW,285,0.0,5.0,85,0.00,,---,0.00,VWS V14.00,2014-01-03 15:08:00,
2014-01-03 10:13:00,1.7,-2.0,30.52,WNW,286,0.0,5.0,84,0.00,,---,0.00,VWS V14.00,2014-01-03 15:13:00,
2014-01-03 10:18:00,2.2,-2.0,30.52,WNW,285,0.0,5.0,82,0.00,,---,0.00,VWS V14.00,2014-01-03 15:18:00,
2014-01-03 10:23:00,2.8,-1.7,30.53,WNW,284,0.0,5.0,81,0.00,,---,0.00,VWS V14.00,2014-01-03 15:23:00,
2014-01-03 10:28:00,3.2,-1.8,30.53,WNW,285,1.0,5.0,79,0.00,,---,0.00,VWS V14.00,2014-01-03 15:28:00,
2014-01-03 10:33:00,3.6,-1.7,30.53,West,279,2.0,4.0,78,0.00,,---,0.00,VWS V14.00,2014-01-03 15:33:00,
2014-01-03 10:38:00,4.0,-1.3,30.53,West,279,0.0,4.0,78,0.00,,---,0.00,VWS V14.00,2014-01-03 15:38:00,
2014-01-03 10:43:00,4.7,-1.2,30.54,WSW,253,3.0,4.0,76,0.00,,---,0.00,VWS V14.00,2014-01-03 15:43:00,
2014-01-03 10:48:00,5.1,-1.4,30.54,West,259,3.0,5.0,74,0.00,,---,0.00,VWS V14.00,2014-01-03 15:48:00,
2014-01-03 10:53:00,5.3,-1.8,30.53,WSW,258,3.0,7.0,72,0.00,,---,0.00,VWS V14.00,2014-01-03 15:53:00,
2014-01-03 10:58:00,5.4,-1.6,30.52,WSW,254,2.0,7.0,72,0.00,,---,0.00,VWS V14.00,2014-01-03 15:58:00,
2014-01-03 11:03:00,5.6,-1.5,30.52,WSW,254,0.0,2.0,72,0.00,,---,0.00,VWS V14.00,2014-01-03 16:03:00,
2014-01-03 11:08:00,6.3,-0.5,30.52,WSW,249,0.0,2.0,73,0.00,,---,0.00,VWS V14.00,2014-01-03 16:08:00,
2014-01-03 11:13:00,6.9,-0.8,30.52,WSW,255,1.0,4.0,70,0.00,,---,0.00,VWS V14.00,2014-01-03 16:13:00,
2014-01-03 11:18:00,7.4,-0.6,30.52,WSW,248,3.0,5.0,69,0.00,,---,0.00,VWS V14.00,2014-01-03 16:18:00,
2014-01-03 11:23:00,7.8,-0.6,30.52,WSW,248,0.0,5.0,68,0.00,,---,0.00,VWS V14.00,2014-01-03 16:23:00,
2014-01-03 11:28:00,8.0,-1.0,30.52,WSW,254,3.0,5.0,66,0.00,,---,0.00,VWS V14.00,2014-01-03 16:28:00,
2014-01-03 11:33:00,7.9,-1.1,30.51,West,259,2.0,5.0,66,0.00,,---,0.00,VWS V14.00,2014-01-03 16:33:00,
2014-01-03 11:38:00,8.0,-0.7,30.51,WSW,257,1.0,5.0,67,0.00,,---,0.00,VWS V14.00,2014-01-03 16:38:00,
2014-01-03 11:43:00,8.5,0.1,30.51,WSW,257,1.0,5.0,68,0.00,,---,0.00,VWS V14.00,2014-01-03 16:43:00,
2014-01-03 11:48:00,8.9,-0.1,30.51,WSW,255,0.0,5.0,66,0.00,,---,0.00,VWS V14.00,2014-01-03 16:48:00,
2014-01-03 11:53:00,9.2,-0.2,30.50,West,262,2.0,5.0,65,0.00,,---,0.00,VWS V14.00,2014-01-03 16:53:00,
2014-01-03 11:58:00,9.2,-0.5,30.49,West,265,0.0,5.0,64,0.00,,---,0.00,VWS V14.00,2014-01-03 16:58:00,
2014-01-03 12:04:00,9.6,0.2,30.49,West,264,3.0,4.0,65,0.00,,---,0.00,VWS V14.00,2014-01-03 17:04:00,
2014-01-03 12:09:00,10.1,0.4,30.48,West,259,3.0,4.0,64,0.00,,---,0.00,VWS V14.00,2014-01-03 17:09:00,
2014-01-03 12:14:00,10.4,0.0,30.49,WSW,254,3.0,4.0,62,0.00,,---,0.00,VWS V14.00,2014-01-03 17:14:00,
2014-01-03 12:19:00,10.5,0.1,30.49,WSW,254,0.0,4.0,62,0.00,,---,0.00,VWS V14.00,2014-01-03 17:19:00,
2014-01-03 12:24:00,10.8,0.3,30.48,WSW,240,4.0,6.0,62,0.00,,---,0.00,VWS V14.00,2014-01-03 17:24:00,
2014-01-03 12:29:00,10.9,0.8,30.48,SW,235,2.0,6.0,63,0.00,,---,0.00,VWS V14.00,2014-01-03 17:29:00,
2014-01-03 12:34:00,11.2,0.7,30.48,SW,235,0.0,3.0,62,0.00,,---,0.00,VWS V14.00,2014-01-03 17:34:00,
2014-01-03 12:39:00,11.3,0.5,30.49,WSW,243,2.0,5.0,61,0.00,,---,0.00,VWS V14.00,2014-01-03 17:39:00,
2014-01-03 12:44:00,11.3,0.1,30.48,SW,232,2.0,6.0,60,0.00,,---,0.00,VWS V14.00,2014-01-03 17:44:00,
2014-01-03 12:49:00,11.1,-0.1,30.48,WSW,254,2.0,6.0,60,0.00,,---,0.00,VWS V14.00,2014-01-03 17:49:00,
2014-01-03 12:54:00,11.0,-0.2,30.48,WSW,257,3.0,6.0,60,0.00,,---,0.00,VWS V14.00,2014-01-03 17:54:00,
2014-01-03 12:59:00,11.0,0.2,30.48,West,259,4.0,6.0,61,0.00,,---,0.00,VWS V14.00,2014-01-03 17:59:00,
2014-01-03 13:04:00,11.0,-0.2,30.48,West,263,2.0,5.0,60,0.00,,---,0.00,VWS V14.00,2014-01-03 18:04:00,
2014-01-03 13:09:00,11.2,0.0,30.47,WSW,258,4.0,5.0,60,0.00,,---,0.00,VWS V14.00,2014-01-03 18:09:00,
2014-01-03 13:14:00,11.3,0.5,30.47,West,262,1.0,5.0,61,0.00,,---,0.00,VWS V14.00,2014-01-03 18:14:00,
2014-01-03 13:19:00,11.6,0.8,30.47,WSW,250,3.0,6.0,61,0.00,,---,0.00,VWS V14.00,2014-01-03 18:19:00,
2014-01-03 13:24:00,12.0,0.4,30.46,WSW,247,1.0,7.0,59,0.00,,---,0.00,VWS V14.00,2014-01-03 18:24:00,
2014-01-03 13:29:00,12.0,0.4,30.46,WSW,253,2.0,8.0,59,0.00,,---,0.00,VWS V14.00,2014-01-03 18:29:00,
2014-01-03 13:34:00,11.9,0.7,30.46,West,259,6.0,7.0,60,0.00,,---,0.00,VWS V14.00,2014-01-03 18:34:00,
2014-01-03 13:39:00,12.0,0.8,30.46,West,259,3.0,8.0,60,0.00,,---,0.00,VWS V14.00,2014-01-03 18:39:00,
2014-01-03 13:44:00,12.1,0.9,30.45,WSW,258,3.0,8.0,60,0.00,,---,0.00,VWS V14.00,2014-01-03 18:44:00,
2014-01-03 13:49:00,12.3,1.1,30.46,WSW,257,2.0,8.0,60,0.00,,---,0.00,VWS V14.00,2014-01-03 18:49:00,
2014-01-03 13:54:00,12.6,1.7,30.45,WSW,258,0.0,8.0,61,0.00,,---,0.00,VWS V14.00,2014-01-03 18:54:00,
2014-01-03 13:59:00,13.2,1.9,30.45,South,189,0.0,8.0,60,0.00,,---,0.00,VWS V14.00,2014-01-03 18:59:00,
2014-01-03 14:04:00,13.6,1.6,30.45,South,188,1.0,3.0,58,0.00,,---,0.00,VWS V14.00,2014-01-03 19:04:00,
2014-01-03 14:10:00,13.9,1.5,30.45,SSE,153,4.0,5.0,57,0.00,,---,0.00,VWS V14.00,2014-01-03 19:10:00,
2014-01-03 14:15:00,14.0,3.4,30.44,SSW,206,0.0,5.0,62,0.00,,---,0.00,VWS V14.00,2014-01-03 19:15:00,
2014-01-03 14:20:00,14.1,1.3,30.44,SSW,201,1.0,5.0,56,0.00,,---,0.00,VWS V14.00,2014-01-03 19:20:00,
2014-01-03 14:25:00,14.3,1.9,30.44,SSW,201,0.0,5.0,57,0.00,,---,0.00,VWS V14.00,2014-01-03 19:25:00,
2014-01-03 14:30:00,14.4,1.2,30.43,SSW,203,2.0,2.0,55,0.00,,---,0.00,VWS V14.00,2014-01-03 19:30:00,
2014-01-03 14:35:00,14.4,1.2,30.44,SW,222,1.0,4.0,55,0.00,,---,0.00,VWS V14.00,2014-01-03 19:35:00,
2014-01-03 14:40:00,14.5,1.3,30.44,SSW,192,1.0,7.0,55,0.00,,---,0.00,VWS V14.00,2014-01-03 19:40:00,
2014-01-03 14:45:00,14.5,0.9,30.44,SW,216,2.0,7.0,54,0.00,,---,0.00,VWS V14.00,2014-01-03 19:45:00,
2014-01-03 14:50:00,14.5,0.9,30.44,SW,227,1.0,7.0,54,0.00,,---,0.00,VWS V14.00,2014-01-03 19:50:00,
2014-01-03 14:55:00,14.5,1.3,30.44,SSE,164,0.0,7.0,55,0.00,,---,0.00,VWS V14.00,2014-01-03 19:55:00,
2014-01-03 15:00:00,14.5,1.3,30.44,South,191,2.0,2.0,55,0.00,,---,0.00,VWS V14.00,2014-01-03 20:00:00,
2014-01-03 15:05:00,14.5,1.3,30.43,SW,214,1.0,4.0,55,0.00,,---,0.00,VWS V14.00,2014-01-03 20:05:00,
2014-01-03 15:10:00,14.4,1.6,30.42,South,171,1.0,6.0,56,0.00,,---,0.00,VWS V14.00,2014-01-03 20:10:00,
2014-01-03 15:15:00,14.5,1.3,30.42,SSE,165,0.0,6.0,55,0.00,,---,0.00,VWS V14.00,2014-01-03 20:15:00,
2014-01-03 15:20:00,14.6,2.2,30.42,South,170,0.0,6.0,57,0.00,,---,0.00,VWS V14.00,2014-01-03 20:20:00,
2014-01-03 15:25:00,14.6,1.4,30.42,SSW,205,1.0,6.0,55,0.00,,---,0.00,VWS V14.00,2014-01-03 20:25:00,
2014-01-03 15:30:00,14.4,1.6,30.42,SW,219,2.0,2.0,56,0.00,,---,0.00,VWS V14.00,2014-01-03 20:30:00,
2014-01-03 15:35:00,14.2,1.4,30.41,SSW,205,0.0,6.0,56,0.00,,---,0.00,VWS V14.00,2014-01-03 20:35:00,
2014-01-03 15:40:00,14.1,1.3,30.41,South,185,0.0,6.0,56,0.00,,---,0.00,VWS V14.00,2014-01-03 20:40:00,
2014-01-03 15:45:00,14.1,0.9,30.41,SSW,213,2.0,6.0,55,0.00,,---,0.00,VWS V14.00,2014-01-03 20:45:00,
2014-01-03 15:50:00,14.0,1.2,30.40,SSE,168,1.0,6.0,56,0.00,,---,0.00,VWS V14.00,2014-01-03 20:50:00,
2014-01-03 15:55:00,14.1,1.7,30.40,SSE,167,0.0,6.0,57,0.00,,---,0.00,VWS V14.00,2014-01-03 20:55:00,
2014-01-03 16:00:00,14.1,1.7,30.40,SSE,148,2.0,5.0,57,0.00,,---,0.00,VWS V14.00,2014-01-03 21:00:00,
2014-01-03 16:05:00,14.1,2.4,30.39,SE,132,4.0,7.0,59,0.00,,---,0.00,VWS V14.00,2014-01-03 21:05:00,
2014-01-03 16:10:00,14.2,2.9,30.39,SE,136,0.0,7.0,60,0.00,,---,0.00,VWS V14.00,2014-01-03 21:10:00,
2014-01-03 16:16:00,14.3,2.6,30.40,SE,140,2.0,7.0,59,0.00,,---,0.00,VWS V14.00,2014-01-03 21:16:00,
2014-01-03 16:21:00,14.3,2.2,30.40,South,170,4.0,7.0,58,0.00,,---,0.00,VWS V14.00,2014-01-03 21:21:00,
2014-01-03 16:26:00,14.1,2.0,30.40,South,175,4.0,7.0,58,0.00,,---,0.00,VWS V14.00,2014-01-03 21:26:00,
2014-01-03 16:31:00,14.0,2.3,30.40,South,176,2.0,2.0,59,0.00,,---,0.00,VWS V14.00,2014-01-03 21:31:00,
2014-01-03 16:36:00,13.9,2.2,30.40,South,182,2.0,7.0,59,0.00,,---,0.00,VWS V14.00,2014-01-03 21:36:00,
2014-01-03 16:41:00,13.9,2.6,30.40,South,177,1.0,7.0,60,0.00,,---,0.00,VWS V14.00,2014-01-03 21:41:00,
2014-01-03 16:46:00,13.8,2.5,30.39,SSE,147,0.0,7.0,60,0.00,,---,0.00,VWS V14.00,2014-01-03 21:46:00,
2014-01-03 16:51:00,13.7,2.8,30.39,SSE,167,0.0,7.0,61,0.00,,---,0.00,VWS V14.00,2014-01-03 21:51:00,
2014-01-03 16:56:00,13.5,2.2,30.39,SSE,162,0.0,7.0,60,0.00,,---,0.00,VWS V14.00,2014-01-03 21:56:00,
2014-01-03 17:01:00,13.5,2.6,30.40,SSE,165,0.0,4.0,61,0.00,,---,0.00,VWS V14.00,2014-01-03 22:01:00,
2014-01-03 17:06:00,13.4,2.5,30.39,South,173,2.0,5.0,61,0.00,,---,0.00,VWS V14.00,2014-01-03 22:06:00,
2014-01-03 17:11:00,13.4,2.5,30.39,South,179,2.0,5.0,61,0.00,,---,0.00,VWS V14.00,2014-01-03 22:11:00,
2014-01-03 17:16:00,13.3,2.7,30.39,South,172,0.0,5.0,62,0.00,,---,0.00,VWS V14.00,2014-01-03 22:16:00,
2014-01-03 17:21:00,13.3,3.1,30.39,South,178,2.0,6.0,63,0.00,,---,0.00,VWS V14.00,2014-01-03 22:21:00,
2014-01-03 17:26:00,13.2,2.6,30.38,SSE,156,0.0,6.0,62,0.00,,---,0.00,VWS V14.00,2014-01-03 22:26:00,
2014-01-03 17:31:00,13.2,3.0,30.38,SSE,157,1.0,4.0,63,0.00,,---,0.00,VWS V14.00,2014-01-03 22:31:00,
2014-01-03 17:36:00,13.1,2.5,30.37,SSE,163,0.0,7.0,62,0.00,,---,0.00,VWS V14.00,2014-01-03 22:36:00,
2014-01-03 17:41:00,13.1,2.5,30.37,South,176,0.0,7.0,62,0.00,,---,0.00,VWS V14.00,2014-01-03 22:41:00,
2014-01-03 17:46:00,13.0,2.8,30.36,SSE,168,1.0,7.0,63,0.00,,---,0.00,VWS V14.00,2014-01-03 22:46:00,
2014-01-03 17:51:00,12.9,2.7,30.36,South,171,1.0,7.0,63,0.00,,---,0.00,VWS V14.00,2014-01-03 22:51:00,
2014-01-03 17:56:00,12.8,2.9,30.36,SSE,148,2.0,7.0,64,0.00,,---,0.00,VWS V14.00,2014-01-03 22:56:00,
2014-01-03 18:01:00,12.8,3.3,30.36,South,170,5.0,5.0,65,0.00,,---,0.00,VWS V14.00,2014-01-03 23:01:00,
2014-01-03 18:06:00,12.8,2.9,30.35,SSE,168,4.0,8.0,64,0.00,,---,0.00,VWS V14.00,2014-01-03 23:06:00,
2014-01-03 18:11:00,12.8,2.9,30.35,SSE,151,2.0,8.0,64,0.00,,---,0.00,VWS V14.00,2014-01-03 23:11:00,
2014-01-03 18:17:00,12.8,3.3,30.35,South,177,2.0,8.0,65,0.00,,---,0.00,VWS V14.00,2014-01-03 23:17:00,
2014-01-03 18:22:00,12.8,3.3,30.35,SSE,163,2.0,8.0,65,0.00,,---,0.00,VWS V14.00,2014-01-03 23:22:00,
2014-01-03 18:27:00,12.9,3.4,30.35,SE,126,0.0,8.0,65,0.00,,---,0.00,VWS V14.00,2014-01-03 23:27:00,
2014-01-03 18:32:00,12.9,3.7,30.34,SE,134,2.0,5.0,66,0.00,,---,0.00,VWS V14.00,2014-01-03 23:32:00,
2014-01-03 18:37:00,13.0,3.8,30.34,South,173,1.0,8.0,66,0.00,,---,0.00,VWS V14.00,2014-01-03 23:37:00,
2014-01-03 18:42:00,13.0,3.5,30.35,SSE,165,5.0,8.0,65,0.00,,---,0.00,VWS V14.00,2014-01-03 23:42:00,
2014-01-03 18:47:00,13.1,3.9,30.35,South,180,4.0,8.0,66,0.00,,---,0.00,VWS V14.00,2014-01-03 23:47:00,
2014-01-03 18:52:00,13.2,4.0,30.34,South,173,0.0,8.0,66,0.00,,---,0.00,VWS V14.00,2014-01-03 23:52:00,
2014-01-03 18:57:00,13.3,4.1,30.34,South,169,1.0,8.0,66,0.00,,---,0.00,VWS V14.00,2014-01-03 23:57:00,
2014-01-03 19:02:00,13.4,3.8,30.34,SSE,165,2.0,4.0,65,0.00,,---,0.00,VWS V14.00,2014-01-04 00:02:00,
2014-01-03 19:07:00,13.4,3.8,30.33,SSE,153,0.0,5.0,65,0.00,,---,0.00,VWS V14.00,2014-01-04 00:07:00,
2014-01-03 19:12:00,13.5,4.3,30.33,SSE,158,1.0,5.0,66,0.00,,---,0.00,VWS V14.00,2014-01-04 00:12:00,
2014-01-03 19:17:00,13.6,3.7,30.34,SSE,157,0.0,7.0,64,0.00,,---,0.00,VWS V14.00,2014-01-04 00:17:00,
2014-01-03 19:19:00,13.6,4.0,30.33,SSE,166,6.0,7.0,65,0.00,,---,0.00,VWS V14.00,2014-01-04 00:19:00,
2014-01-03 19:24:00,13.7,4.1,30.33,SSW,193,1.0,9.0,65,0.00,,---,0.00,VWS V14.00,2014-01-04 00:24:00,
2014-01-03 19:29:00,13.7,3.8,30.33,SSE,154,0.0,9.0,64,0.00,,---,0.00,VWS V14.00,2014-01-04 00:29:00,
2014-01-03 19:34:00,13.8,4.2,30.33,South,169,0.0,6.0,65,0.00,,---,0.00,VWS V14.00,2014-01-04 00:34:00,
2014-01-03 19:39:00,13.9,4.3,30.33,South,173,2.0,6.0,65,0.00,,---,0.00,VWS V14.00,2014-01-04 00:39:00,
2014-01-03 19:44:00,14.0,4.1,30.33,SSE,159,6.0,6.0,64,0.00,,---,0.00,VWS V14.00,2014-01-04 00:44:00,
2014-01-03 19:49:00,14.1,4.2,30.33,South,175,1.0,8.0,64,0.00,,---,0.00,VWS V14.00,2014-01-04 00:49:00,
2014-01-03 19:54:00,14.1,3.8,30.33,South,182,0.0,8.0,63,0.00,,---,0.00,VWS V14.00,2014-01-04 00:54:00,
2014-01-03 19:59:00,14.2,4.3,30.33,SSE,157,2.0,8.0,64,0.00,,---,0.00,VWS V14.00,2014-01-04 00:59:00,
2014-01-03 20:04:00,14.3,4.4,30.33,South,179,1.0,6.0,64,0.00,,---,0.00,VWS V14.00,2014-01-04 01:04:00,
2014-01-03 20:09:00,14.3,4.4,30.33,South,177,1.0,7.0,64,0.00,,---,0.00,VWS V14.00,2014-01-04 01:09:00,
2014-01-03 20:14:00,14.3,4.4,30.31,South,172,4.0,7.0,64,0.00,,---,0.00,VWS V14.00,2014-01-04 01:14:00,
2014-01-03 20:19:00,14.3,4.4,30.30,SSW,194,3.0,7.0,64,0.00,,---,0.00,VWS V14.00,2014-01-04 01:19:00,
2014-01-03 20:24:00,14.3,4.7,30.30,SSE,162,5.0,8.0,65,0.00,,---,0.00,VWS V14.00,2014-01-04 01:24:00,
2014-01-03 20:29:00,14.3,4.7,30.30,South,181,2.0,8.0,65,0.00,,---,0.00,VWS V14.00,2014-01-04 01:29:00,
2014-01-03 20:34:00,14.3,4.4,30.30,South,175,6.0,10.0,64,0.00,,---,0.00,VWS V14.00,2014-01-04 01:34:00,
2014-01-03 20:39:00,14.3,4.4,30.29,SSE,166,2.0,10.0,64,0.00,,---,0.00,VWS V14.00,2014-01-04 01:39:00,
2014-01-03 20:44:00,14.2,4.3,30.29,SSE,150,2.0,10.0,64,0.00,,---,0.00,VWS V14.00,2014-01-04 01:44:00,
2014-01-03 20:49:00,14.2,4.6,30.30,SSE,164,1.0,10.0,65,0.00,,---,0.00,VWS V14.00,2014-01-04 01:49:00,
2014-01-03 20:54:00,14.1,4.5,30.29,South,179,0.0,10.0,65,0.00,,---,0.00,VWS V14.00,2014-01-04 01:54:00,
2014-01-03 20:59:00,14.0,4.4,30.28,SSE,153,4.0,11.0,65,0.00,,---,0.00,VWS V14.00,2014-01-04 01:59:00,
2014-01-03 21:05:00,13.9,4.3,30.28,SSE,153,1.0,4.0,65,0.00,,---,0.00,VWS V14.00,2014-01-04 02:05:00,
2014-01-03 21:10:00,13.7,4.5,30.28,SSE,167,1.0,6.0,66,0.00,,---,0.00,VWS V14.00,2014-01-04 02:10:00,
2014-01-03 21:15:00,13.5,4.3,30.28,SSE,157,4.0,6.0,66,0.00,,---,0.00,VWS V14.00,2014-01-04 02:15:00,
2014-01-03 21:20:00,13.3,4.1,30.28,SSE,152,5.0,6.0,66,0.00,,---,0.00,VWS V14.00,2014-01-04 02:20:00,
2014-01-03 21:25:00,13.2,4.3,30.27,SSE,148,0.0,6.0,67,0.00,,---,0.00,VWS V14.00,2014-01-04 02:25:00,
2014-01-03 21:30:00,13.0,4.4,30.27,SSE,164,0.0,0.0,68,0.00,,---,0.00,VWS V14.00,2014-01-04 02:30:00,
2014-01-03 21:35:00,12.8,4.2,30.27,SSE,165,1.0,6.0,68,0.00,,---,0.00,VWS V14.00,2014-01-04 02:35:00,
2014-01-03 21:40:00,12.7,4.5,30.27,SSE,155,4.0,6.0,69,0.00,,---,0.00,VWS V14.00,2014-01-04 02:40:00,
2014-01-03 21:45:00,12.6,4.4,30.26,SSE,163,1.0,6.0,69,0.00,,---,0.00,VWS V14.00,2014-01-04 02:45:00,
2014-01-03 21:50:00,12.5,4.3,30.26,South,173,5.0,7.0,69,0.00,,---,0.00,VWS V14.00,2014-01-04 02:50:00,
2014-01-03 21:55:00,12.4,4.2,30.26,SSE,155,1.0,7.0,69,0.00,,---,0.00,VWS V14.00,2014-01-04 02:55:00,
2014-01-03 22:00:00,12.3,4.4,30.26,SSE,163,1.0,5.0,70,0.00,,---,0.00,VWS V14.00,2014-01-04 03:00:00,
2014-01-03 22:05:00,12.3,4.4,30.26,SSE,166,2.0,6.0,70,0.00,,---,0.00,VWS V14.00,2014-01-04 03:05:00,
2014-01-03 22:06:00,12.3,4.4,30.25,SSE,166,1.0,6.0,70,0.00,,---,0.00,VWS V14.00,2014-01-04 03:06:00,
2014-01-03 22:11:00,12.2,4.6,30.25,SSE,160,0.0,6.0,71,0.00,,---,0.00,VWS V14.00,2014-01-04 03:11:00,
2014-01-03 22:16:00,12.1,4.5,30.25,South,173,2.0,6.0,71,0.00,,---,0.00,VWS V14.00,2014-01-04 03:16:00,
2014-01-03 22:21:00,12.1,4.5,30.24,SE,127,0.0,6.0,71,0.00,,---,0.00,VWS V14.00,2014-01-04 03:21:00,
2014-01-03 22:26:00,12.1,4.8,30.24,SSE,159,1.0,7.0,72,0.00,,---,0.00,VWS V14.00,2014-01-04 03:26:00,
2014-01-03 22:31:00,12.0,4.7,30.24,SSE,165,0.0,4.0,72,0.00,,---,0.00,VWS V14.00,2014-01-04 03:31:00,
2014-01-03 22:36:00,12.1,4.8,30.23,SSE,165,4.0,7.0,72,0.00,,---,0.00,VWS V14.00,2014-01-04 03:36:00,
2014-01-03 22:41:00,12.1,5.1,30.23,SSE,157,1.0,7.0,73,0.00,,---,0.00,VWS V14.00,2014-01-04 03:41:00,
2014-01-03 22:46:00,12.0,5.0,30.23,SSE,158,2.0,7.0,73,0.00,,---,0.00,VWS V14.00,2014-01-04 03:46:00,
2014-01-03 22:51:00,11.9,5.2,30.22,South,169,1.0,7.0,74,0.00,,---,0.00,VWS V14.00,2014-01-04 03:51:00,
2014-01-03 22:56:00,11.9,5.2,30.22,SSE,160,1.0,7.0,74,0.00,,---,0.00,VWS V14.00,2014-01-04 03:56:00,
2014-01-03 23:01:00,11.9,5.2,30.22,SSE,160,0.0,2.0,74,0.00,,---,0.00,VWS V14.00,2014-01-04 04:01:00,
2014-01-03 23:06:00,12.0,5.6,30.22,SSE,155,2.0,5.0,75,0.00,,---,0.00,VWS V14.00,2014-01-04 04:06:00,
2014-01-03 23:12:00,12.1,5.7,30.22,South,178,2.0,8.0,75,0.00,,---,0.00,VWS V14.00,2014-01-04 04:12:00,
2014-01-03 23:17:00,12.2,5.8,30.22,SSE,167,2.0,8.0,75,0.00,,---,0.00,VWS V14.00,2014-01-04 04:17:00,
2014-01-03 23:22:00,12.3,5.9,30.22,SSE,155,1.0,8.0,75,0.00,,---,0.00,VWS V14.00,2014-01-04 04:22:00,
2014-01-03 23:27:00,12.4,6.3,30.21,SSE,159,1.0,8.0,76,0.00,,---,0.00,VWS V14.00,2014-01-04 04:27:00,
2014-01-03 23:32:00,12.5,6.4,30.21,SSE,165,0.0,6.0,76,0.00,,---,0.00,VWS V14.00,2014-01-04 04:32:00,
2014-01-03 23:37:00,12.6,6.5,30.21,SSE,154,0.0,6.0,76,0.00,,---,0.00,VWS V14.00,2014-01-04 04:37:00,
2014-01-03 23:42:00,12.6,6.5,30.21,SSE,154,2.0,6.0,76,0.00,,---,0.00,VWS V14.00,2014-01-04 04:42:00,
2014-01-03 23:47:00,12.6,6.5,30.20,SSW,211,1.0,7.0,76,0.00,,---,0.00,VWS V14.00,2014-01-04 04:47:00,
2014-01-03 23:52:00,12.6,6.5,30.20,SSE,164,2.0,7.0,76,0.00,,---,0.00,VWS V14.00,2014-01-04 04:52:00,
2014-01-03 23:57:00,12.6,6.5,30.20,SE,146,1.0,10.0,76,0.00,,---,0.00,VWS V14.00,2014-01-04 04:57:00,